Location: ????????
(55.6189°N, 38.3031°E)
Time: 23:58:30
(UTC+00:00)

Cosmos 2360 Rocket - Pass Details

Date: 15 November 2019
Orbit: 832 x 847 km, 71.0° (Epoch: 10 December)

Event Time Altitude Azimuth Distance (km) Brightness Sun altitude
Exits shadow 01:55:57 21° 343° (NNW) 1,848 3.8 -25.7°
Maximum altitude 01:59:21 40° 41° (NE) 1,237 3.3 -25.2°
Drops below altitude 10° 02:04:41 10° 110° (ESE) 2,473 5.5 -24.4°
Sets 02:07:17 0° 118° (ESE) 3,405 6.3 -24.1°
